Terminal Aerodrome Forecast
Issued by NWS Billings, MT

Home | Current Version | Previous Version | Text Only | Print | Product List | Glossary On
Versions: 1 2 3 4 5 6 7 8 9 10 11 12 13 14 15 16 17 18 19 20 21 22 23
000
FTUS45 KBYZ 180520
TAFSHR
TAF
KSHR 180520Z 1806/1906 VRB04KT P6SM VCSH SCT100
     FM181000 VRB04KT P6SM SCT120
     FM182200 18008KT P6SM VCTS SCT100CB BKN120
     FM190500 31015G24KT P6SM VCSH SCT100 BKN120=

USA.gov is the U.S. government's official web portal to all federal, state and local government web resources and services.